STARLINK-35952

Last updated on Fri Dec 19 2025 00:02:05 GMT+0000 (Coordinated Universal Time)

1 66520U 25265E 25352.48292040 .00018928 00000+0 45901-3 0 9994 2 66520 43.0012 20.9051 0001072 249.7534 110.3208 15.40715607 4647
UTC large
Height (km)
Speed (km/s)
/
Latitude / Longitude
Inclination (degrees)
Orbital Period (minutes)
Azimuth
Elevation
Range (km)
Doppler Factor

Next 0 passes for location: London (51.5072 / 0.1276)

Sorry there are no passes over London.